STARLINK-32657, 62475

Orbit data source: Space-Track

STARLINK-32657, 62475 is a payload satellite owned by SpaceX/Seattle (US) in LEO that was launched on Tue, 31 Dec 2024 UTC via an FALCON 9 launch vehicle from the Air Force Eastern Test Range (AFETR). Payloads include a variety of satellites, spacecraft, and rockets equipped with specific instruments for various scientific and technological missions. These include communications satellites like Starlink; space stations such as the ISS; scientific satellites like the Hubble; Earth observation satellites from companies like Planet Labs, Umbra, and HawkEye 360; GPS; miniature CubeSats for education and research; and military/defense satellites.

Loading next visibility...
STARLINK-32657 details
Identifier
62475, 2024-254P
Orbit
LEO
Last TLE update17 hours ago
Origin
Flag of USSpaceX/Seattle (US)
ManufacturerSpaceX/Seattle
MissionOperational Commercial Communications
Bus & MotorSTARLINK V2M, Unknown motor
Mass730 kg wet, ~700 kg dry
Launch date (UTC)
2024-12-31 (1 month ago)
Launch vehicle
FALCON 9
Launch site
Air Force Eastern Test Range (AFETR)
Object type
Payload
Rocket body
Debris
Shape & HBRBox + 2 Pan, 29 m
Radar Cross Section33.884 m², Large (>1 m²)

Expand to show TLE details & history

TLE from 17 hours ago
0 STARLINK-32657
1 62475U 24254P   25035.50686400  .00002103  00000-0  57629-4 0  9994
2 62475  43.0045 108.7744 0003395 294.6550  65.3952 15.40697831  6554
Epoch: 2025-02-04T12:09Z
Definitive object data (Epoch: 2025-02-04T12:09:53.049Z)
Latitude-0.00008°
Longitude151.39211°
Altitude442.86 km
Speed7.649 km/s
True Right ascension07h 15m 05s
True Declination0° 00' 00"
Sunlit
Object was in full shadow at TLE epoch
Visualization TLE readout
Latitude-36.81854°
Longitude20.36401°
Altitude453.548 km
Speed7.641 km/s
Apparent Right ascension20h 46m 08s
Apparent Declination-41° 36' 04"
Sunlit
Object is in daylight
Visualization observer readout
Local Sidereal Time06:47:49
Azimuth256.014° W
Elevation-67.64°
Doppler factor1
Orbital elements
Apogee altitude448.321 km
Perigee altitude443.687 km
Semi-major axis6,824.141 km
Eccentricity0.0003395
Inclination43.0045°
RAAN108.7744°
Arg. of periapsis294.655°
True anomaly65.43058°
Mean anomaly65.3952°
Eccentric anomaly65.41289°
Mean motion3.85009 °/min
BSTAR0.000057629
Orbital period93.5 mins
Loading maneuver chart data...
Loading historical data...
Loading historical data...
Loading historical data...
Loading historical data...
Loading historical data...
Loading historical data...
Loading historical data...

STARLINK-32657 Visibility forecast

Observer location: undefined°, undefined

Span
Click to sort rows by Start time (UTC) header in descending order
Start Az.
Max El. time (UTC)
Max El. Az.
Max El.
End time (UTC)
End Az.
5 mins2025-02-05 08:37:55.174Z235.897° WSW2025-02-05 08:39:55.174Z200.985° SSW39.965°2025-02-05 08:42:55.174Z77.704° E
5 mins2025-02-05 10:16:55.174Z289.651° WNW2025-02-05 10:18:55.174Z20.943° NNE36.941°2025-02-05 10:21:55.174Z72.03° E
5 mins2025-02-05 11:54:55.174Z296.317° NW2025-02-05 11:56:55.174Z19.453° NNE41.748°2025-02-05 11:59:55.174Z93.316° ESE
5 mins2025-02-05 13:32:55.174Z265.953° W2025-02-05 13:34:55.174Z205.054° SW31.734°2025-02-05 13:37:55.174Z140.442° SSE
|